Weather History for Eagle, AK

Change the Weather History Date:

Sunday, December 29, 2013

  Actual Average (PABN) Record (PABN)
Temperature  
Mean Temperature -2 °F -  
Max Temperature 1 °F 2 °F 39 °F (1996)
Min Temperature -4 °F -2 °F -23 °F (1998)
Degree Days  
Heating Degree Days 66    
Moisture  
Dew Point -8 °F    
Average Humidity 69    
Maximum Humidity 76    
Minimum Humidity 63    
Precipitation  
Precipitation 0.02 in - - ()
Sea Level Pressure  
Sea Level Pressure 30.19 in    
Wind  
Wind Speed 11 mph (East)    
Max Wind Speed 16 mph    
Max Gust Speed 25 mph    
Visibility 6 miles    
Events Snow    
Averages and records for this station are not official NWS values.
T = Trace of Precipitation, MM = Missing Value Source: NWS Daily Summary

Daily Weather History Graph

Daily Weather History Graph

Search for Another Location

Airport:

Trip Planner

Search our weather history database for the weather conditions in past years. The results will help you decide how hot, cold, wet, or windy it might be!

Date:

Astronomy

Dec. 29, 2013 Rise Set
Actual Time 10:29 AM AKST 2:24 PM AKST
Civil Twilight 9:06 AM AKST 3:47 PM AKST
Nautical Twilight 7:55 AM AKST 4:58 PM AKST
Astronomical Twilight 6:54 AM AKST 5:59 PM AKST
Moon 6:36 AM AKST (12/29) 12:52 PM AKST (12/29)
Length of Visible Light 6h 40m
Length of Day
3h 54m
Waning Crescent, 10% of the Moon is Illuminated
Dec 29
Waning Crescent
Jan 1
New
Jan 7
First Quarter
Jan 15
Full
Jan 23
Last Quarter

Hourly Weather History & Observations

Time (AKST) Temp. Windchill Dew Point Humidity Pressure Visibility Wind Dir Wind Speed Gust Speed Precip Events Conditions
12:08 AM -0.0 °F -20.1 °F -8.0 °F 69% 30.12 in 1.8 mi SE 16.1 mph 24.2 mph 0.00 in Snow Light Snow
12:15 AM -0.0 °F -18.7 °F -8.0 °F 69% 30.12 in 2.5 mi SE 13.8 mph 24.2 mph 0.00 in Snow Light Snow
12:22 AM -0.0 °F -15.3 °F -9.0 °F 66% 30.12 in 4.0 mi SE 9.2 mph 21.9 mph 0.00 in Snow Light Snow
12:53 AM -0.0 °F -18.7 °F -9.0 °F 66% 30.20 in 6.0 mi ESE 13.8 mph 25.3 mph 0.00 in Snow Light Snow
1:53 AM 1.0 °F -14.0 °F -9.0 °F 63% 30.22 in 10.0 mi ESE 9.2 mph 18.4 mph 0.00 in   Overcast
2:53 AM 1.0 °F -12.9 °F -8.0 °F 66% 30.22 in 10.0 mi East 8.1 mph - N/A   Overcast
3:53 AM -0.0 °F -14.2 °F -8.0 °F 69% 30.22 in 10.0 mi East 8.1 mph - N/A   Overcast
4:53 AM 1.9 °F -13.8 °F -8.0 °F 63% 30.21 in 10.0 mi East 10.4 mph 18.4 mph N/A   Overcast
5:53 AM 1.0 °F -15.8 °F -8.0 °F 66% 30.21 in 10.0 mi East 11.5 mph - N/A   Overcast
6:53 AM 1.0 °F -14.0 °F -8.0 °F 66% 30.22 in 9.0 mi ENE 9.2 mph - 0.00 in Snow Light Snow
7:53 AM 1.0 °F -14.9 °F -8.0 °F 66% 30.22 in 5.0 mi East 10.4 mph - 0.00 in Snow Light Snow
8:12 AM 1.0 °F -14.0 °F -8.0 °F 66% 30.14 in 2.0 mi East 9.2 mph 18.4 mph 0.00 in Snow Light Snow
8:19 AM 1.0 °F -14.0 °F -7.1 °F 69% 30.14 in 1.0 mi East 9.2 mph - 0.01 in Snow Light Snow
8:27 AM 1.0 °F -14.0 °F -7.1 °F 69% 30.14 in 0.8 mi East 9.2 mph - 0.01 in Snow Light Snow
8:45 AM 1.0 °F -14.0 °F -6.0 °F 72% 30.15 in 1.0 mi East 9.2 mph - 0.01 in Snow Light Snow
8:53 AM 1.0 °F -14.9 °F -6.0 °F 72% 30.22 in 1.5 mi ENE 10.4 mph - 0.02 in Snow Light Snow
9:04 AM 1.0 °F -14.0 °F -6.0 °F 72% 30.15 in 2.5 mi East 9.2 mph 17.3 mph 0.00 in Snow Light Snow
9:10 AM 1.0 °F -14.0 °F -6.0 °F 72% 30.15 in 3.0 mi East 9.2 mph 17.3 mph 0.00 in Snow Light Snow
9:53 AM 1.0 °F -14.0 °F -6.0 °F 72% 30.24 in 3.0 mi East 9.2 mph - 0.00 in Snow Light Snow
10:24 AM 1.0 °F -12.9 °F -6.0 °F 72% 30.17 in 2.5 mi East 8.1 mph - 0.00 in Snow Light Snow
10:33 AM -0.0 °F -14.2 °F -6.0 °F 76% 30.17 in 2.0 mi East 8.1 mph - 0.00 in Snow Light Snow
10:40 AM -0.0 °F -15.3 °F -6.0 °F 76% 30.17 in 1.2 mi East 9.2 mph - 0.00 in Snow Light Snow
10:53 AM -0.0 °F -15.3 °F -6.0 °F 76% 30.25 in 1.2 mi East 9.2 mph - 0.00 in Snow Light Snow
11:17 AM -0.0 °F -14.2 °F -6.0 °F 76% 30.17 in 2.0 mi East 8.1 mph - 0.00 in Snow Light Snow
11:53 AM 1.0 °F -14.9 °F -6.0 °F 72% 30.25 in 2.5 mi East 10.4 mph - 0.00 in Snow Light Snow
12:03 PM 1.9 °F -11.8 °F -6.0 °F 69% 30.17 in 3.0 mi East 8.1 mph - 0.00 in Snow Light Snow
12:53 PM 1.0 °F -12.9 °F -7.1 °F 69% 30.25 in 6.0 mi East 8.1 mph - 0.00 in   Haze
1:53 PM 1.9 °F -11.8 °F -7.1 °F 66% 30.24 in 10.0 mi ESE 8.1 mph - N/A   Overcast
2:53 PM 1.0 °F -14.9 °F -8.0 °F 66% 30.24 in 10.0 mi ESE 10.4 mph 20.7 mph N/A   Scattered Clouds
3:53 PM -0.9 °F -17.4 °F -9.0 °F 69% 30.24 in 10.0 mi East 10.4 mph - N/A   Mostly Cloudy
4:53 PM -2.0 °F -17.7 °F -9.9 °F 69% 30.24 in 10.0 mi East 9.2 mph - N/A   Overcast
5:53 PM 1.0 °F -14.0 °F -8.0 °F 66% 30.23 in 10.0 mi East 9.2 mph - N/A   Overcast
6:53 PM 1.0 °F -14.0 °F -8.0 °F 66% 30.22 in 10.0 mi ESE 9.2 mph - N/A   Overcast
7:53 PM -2.9 °F -17.7 °F -9.9 °F 72% 30.21 in 10.0 mi ENE 8.1 mph - N/A   Scattered Clouds
8:53 PM -4.0 °F -20.2 °F -11.0 °F 72% 30.20 in 10.0 mi East 9.2 mph - N/A   Clear
9:53 PM -2.9 °F -17.7 °F -9.9 °F 72% 30.20 in 10.0 mi East 8.1 mph - N/A   Clear
10:53 PM -2.0 °F -13.9 °F -9.0 °F 72% 30.19 in 10.0 mi East 5.8 mph - N/A   Overcast
11:53 PM 1.0 °F -8.7 °F -8.0 °F 66% 30.17 in 10.0 mi East 4.6 mph - N/A   Overcast